Regional Weather Roundup
Issued by NWS

Home | Current Version | Previous Version | Graphics & Text | Print | Product List | Glossary Off
Versions: 1 2 3 4 5 6 7 8 9 10 11 12 13 14 15 16 17 18 19 20 21 22 23 24 25 26 27 28 29 30 31 32 33 34 35 36 37 38 39 40 41 42 43 44 45 46 47 48 49 50

000
ASUS43 KDMX 241007
RWRIA

WEATHER ROUNDUP FOR IOWA
NATIONAL WEATHER SERVICE DES MOINES IA
500 AM CDT THU JUL 24 2014

NOTE: "FAIR" INDICATES FEW OR NO CLOUDS BELOW 12,000 FEET WITH NO
SIGNIFICANT WEATHER AND/OR OBSTRUCTIONS TO VISIBILITY.

* - THESE STATIONS ARE NOT NWS STATIONS...THUS NOT UNDER NWS
QUALITY CONTROL.  THEY ALSO DO NOT REPORT WEATHER SUCH
AS PRECIPITATION OR FOG.

IAZ001>003-012>014-020>022-031>034-043>046-241100-
   NORTHWEST IOWA

CITY           SKY/WX    TMP DP  RH WIND       PRES   REMARKS
CARROLL *      CLEAR     55  54  94 CALM      30.16S
CHEROKEE *     CLEAR     61  61 100 CALM      30.15S
DENISON *      CLEAR     63  59  88 CALM      30.14S
LE MARS *      CLEAR     61  59  94 CALM      30.14S
ORANGE CITY *  CLEAR     64  57  77 E3        30.15S
SHELDON *      CLEAR     55  55 100 E5        30.14F
SIOUX CITY     CLEAR     63  60  90 SE7       30.12F
SPENCER        CLEAR     57  54  89 NE5       30.16F
STORM LAKE *   CLEAR     59  59 100 SE5       30.16F
$$

IAZ055>058-069>071-079>083-090>094-241100-
   SOUTHWEST IOWA

CITY           SKY/WX    TMP DP  RH WIND       PRES   REMARKS
ATLANTIC *     CLEAR     57  57 100 N5        30.15S
AUDUBON *      CLEAR     57  55  94 CALM      30.17S
CLARINDA *     CLEAR     59  57  94 CALM      30.16S
COUNCIL BLFS *   N/A     64  61  88 SE7       30.13S
CRESTON *      CLEAR     61  57  88 E5        30.16S
HARLAN  *      CLEAR     59  57  94 CALM      30.19R
LAMONI         CLEAR     60  58  92 NE5       30.15S
RED OAK *      CLEAR     63  59  88 CALM      30.14S
SHENANDOAH *   CLEAR     64  61  88 E6        30.14S
$$

IAZ047>049-059>061-072>074-084-241100-
   CENTRAL IOWA

CITY           SKY/WX    TMP DP  RH WIND       PRES   REMARKS
AMES           CLEAR     57  56  96 CALM      30.15S
ANKENY *       CLEAR     55  55 100 CALM      30.15S
CHARITON *     CLEAR     59  57  94 CALM      30.16R
DES MOINES     CLEAR     66  59  78 CALM      30.14F
GRINNELL*      CLEAR     57  54  88 CALM      30.17S
KNOXVILLE *    CLEAR     63  59  88 CALM      30.15R
MARSHALLTOWN   CLEAR     58  56  93 E3        30.16S
PELLA *        CLEAR     59  57  94 CALM      30.16F
PERRY *          N/A     57  57 100 CALM      30.16S
$$

IAZ004>006-015-016-023>025-035-036-241100-
   NORTH CENTRAL IOWA

CITY           SKY/WX    TMP DP  RH WIND       PRES   REMARKS
ALGONA *       PTCLDY    57  55  94 CALM      30.16F
CLARION *      CLEAR     57  55  94 CALM      30.16F
ESTHERVILLE    CLEAR     54  52  93 NW3       30.17R
FORT DODGE *   PTCLDY    57  55  94 E3        30.17S
MASON CITY     CLEAR     52  51  97 CALM      30.19R
FOREST CITY *  FOG       54  54 100 CALM      30.17S VSB 1
IOWA FALLS *     N/A     59  57  94 CALM      30.18S
$$

IAZ007>011-017>019-026>030-037>042-050>054-066-241100-
   NORTHEAST IOWA

CITY           SKY/WX    TMP DP  RH WIND       PRES   REMARKS
CEDAR RAPIDS   CLEAR     60  56  86 NE5       30.16R
CHARLES CITY * PTCLDY    55  54  94 CALM      30.17S
CLINTON *      CLOUDY    59  55  88 CALM      30.20S
DECORAH *      CLEAR     55  55 100 CALM      30.17R
DUBUQUE        CLEAR     56  51  84 S3        30.19R
MONTICELLO *   PTCLDY    57  55  94 CALM      30.18R
OELWEIN *      CLEAR     57  55  94 E6        30.18R
WATERLOO       CLOUDY    56  55  97 CALM      30.15S FOG
$$

IAZ064-065-067-068-078-241100-
   EAST CENTRAL IOWA

CITY           SKY/WX    TMP DP  RH WIND       PRES   REMARKS
DAVENPORT      CLEAR     55  52  89 CALM      30.18R
IOWA CITY      CLEAR     61  57  87 SE3       30.17S
MT. PLEASANT * CLEAR     59  57  94 NE5       30.16R
MUSCATINE *    CLEAR     57  54  88 CALM      30.17S
QUAD CITIES    CLEAR     56  53  90 CALM      30.16S
$$

IAZ062-063-075>077-085>089-095>099-241100-
   SOUTHEAST IOWA

CITY           SKY/WX    TMP DP  RH WIND       PRES   REMARKS
BURLINGTON     CLEAR     60  56  86 E5        30.16R
FAIRFIELD *    CLEAR     57  55  94 CALM      30.16R
FORT MADISON * CLEAR     61  61 100 CALM      30.17R
KEOKUK *       CLEAR     59  59 100 E6        30.15R
OSKALOOSA *      N/A     59  57  94 N5        30.15F
CENTERVILLE *  CLEAR     55  55 100 CALM      30.17S
OTTUMWA        CLEAR     58  56  93 N3        30.15S
WASHINGTON *   PTCLDY    59  57  94 NE5       30.16S
$$

ABBREVIATIONS USED IN REMARKS
   TC - TEMPERATURES IN CELSIUS
  WCI - WIND CHILL INDEX
   HX - HEAT INDEX
  VSB - VISIBILITY
$$




USA.gov is the U.S. government's official web portal to all federal, state and local government web resources and services.